Weather History for KGCD - January, 2014

Change the Weather History Date:

Friday, January 24, 2014

  Actual Average (KBNO) Record (KBNO)
Temperature  
Mean Temperature 28 °F 25 °F  
Max Temperature 41 °F 35 °F 56 °F (2015)
Min Temperature 16 °F 15 °F -17 °F (2008)
Degree Days  
Heating Degree Days 36 40  
Month to date heating degree days 971  
Since 1 July heating degree days 4238  
Cooling Degree Days 0 0  
Month to date cooling degree days 0  
Year to date cooling degree days 0  
Moisture  
Dew Point 22 °F    
Average Humidity 74    
Maximum Humidity 95    
Minimum Humidity 44    
Precipitation  
Precipitation 0.00 in 0.03 in 0.67 in (2012)
Month to date precipitation 0.95  
Year to date precipitation 0.95  
Sea Level Pressure  
Sea Level Pressure 30.47 in    
Wind  
Wind Speed 4 mph (East)    
Max Wind Speed 12 mph    
Max Gust Speed -    
Visibility 9 miles    
Events Fog    
T = Trace of Precipitation, MM = Missing Value Source: NWS Daily Summary

Daily Weather History Graph

Daily Weather History Graph

Search for Another Location

Airport or City:

Trip Planner

Search our weather history database for the weather conditions in past years. The results will help you decide how hot, cold, wet, or windy it might be!

Date:

Astronomy

Jan. 24, 2014 Rise Set
Actual Time 7:22 AM PST 4:54 PM PST
Civil Twilight 6:50 AM PST 5:25 PM PST
Nautical Twilight 6:15 AM PST 6:01 PM PST
Astronomical Twilight 5:40 AM PST 6:35 PM PST
Moon 12:51 AM PST (1/24) 11:18 AM PST (1/24)
Length of Visible Light 10h 35m
Length of Day
9h 32m
Last Quarter, 43% of the Moon is Illuminated
Jan 24
Last Quarter
Jan 30
New
Feb 6
First Quarter
Feb 14
Full
Feb 22
Last Quarter

Hourly Weather History & Observations

Time (PST) Temp. Windchill Dew Point Humidity Pressure Visibility Wind Dir Wind Speed Gust Speed Precip Events Conditions
12:15 AM 24.8 °F 20.5 °F 23.5 °F 95% 30.49 in 10.0 mi ESE 3.5 mph - N/A   Clear
12:35 AM 21.9 °F - 20.1 °F 93% 30.50 in 0.5 mi Calm Calm - N/A Fog Light Freezing Fog
12:55 AM 20.8 °F 16.0 °F 19.4 °F 94% 30.50 in 0.2 mi West 3.5 mph - N/A Fog Light Freezing Fog
1:15 AM 21.0 °F - 19.4 °F 93% 30.51 in 0.2 mi Calm Calm - N/A Fog Light Freezing Fog
1:35 AM 19.0 °F - 17.4 °F 93% 30.52 in 0.2 mi Calm Calm - N/A Fog Light Freezing Fog
1:55 AM 22.6 °F - 21.2 °F 94% 30.51 in 7.0 mi Calm Calm - N/A   Clear
2:15 AM 19.8 °F - 18.0 °F 93% 30.52 in 0.8 mi Calm Calm - N/A   Scattered Clouds
2:35 AM 18.5 °F - 16.5 °F 92% 30.52 in 0.2 mi Calm Calm - N/A Fog Light Freezing Fog
2:55 AM 21.4 °F 12.8 °F 19.9 °F 94% 30.52 in 10.0 mi East 6.9 mph - N/A   Scattered Clouds
3:15 AM 22.1 °F 13.7 °F 20.5 °F 93% 30.52 in 10.0 mi ESE 6.9 mph - N/A   Clear
3:35 AM 21.7 °F 14.3 °F 19.8 °F 92% 30.51 in 10.0 mi East 5.8 mph - N/A   Clear
3:55 AM 21.2 °F 13.6 °F 19.4 °F 93% 30.51 in 10.0 mi East 5.8 mph - N/A   Clear
4:15 AM 16.2 °F - 14.0 °F 91% 30.51 in 0.5 mi Calm Calm - N/A Fog Light Freezing Fog
4:35 AM 17.1 °F 11.7 °F 14.9 °F 91% 30.51 in 10.0 mi East 3.5 mph - N/A   Clear
4:55 AM 19.0 °F 13.9 °F 16.9 °F 91% 30.50 in 10.0 mi East 3.5 mph - N/A   Clear
5:15 AM 19.8 °F 9.1 °F 17.6 °F 91% 30.50 in 10.0 mi East 9.2 mph - N/A   Clear
5:35 AM 19.2 °F 10.2 °F 17.2 °F 92% 30.50 in 10.0 mi ESE 6.9 mph - N/A   Clear
5:55 AM 20.5 °F 10.0 °F 18.5 °F 92% 30.50 in 10.0 mi East 9.2 mph - N/A   Clear
6:15 AM 19.8 °F 9.9 °F 17.6 °F 91% 30.50 in 10.0 mi East 8.1 mph - N/A   Clear
6:35 AM 20.5 °F 10.0 °F 18.7 °F 93% 30.50 in 10.0 mi East 9.2 mph - N/A   Clear
6:55 AM 20.8 °F 10.4 °F 18.5 °F 91% 30.50 in 10.0 mi East 9.2 mph - N/A   Clear
7:15 AM 20.1 °F 11.3 °F 17.8 °F 91% 30.50 in 10.0 mi East 6.9 mph - N/A   Clear
7:35 AM 20.1 °F 8.8 °F 17.6 °F 90% 30.50 in 10.0 mi East 10.4 mph - N/A   Clear
7:55 AM 20.3 °F 9.8 °F 18.0 °F 91% 30.50 in 10.0 mi ESE 9.2 mph - N/A   Clear
8:15 AM 23.2 °F 12.6 °F 20.3 °F 89% 30.49 in 10.0 mi East 10.4 mph - N/A   Clear
8:35 AM 23.4 °F 13.5 °F 20.3 °F 88% 30.49 in 10.0 mi East 9.2 mph - N/A   Clear
8:55 AM 24.8 °F 14.0 °F 21.2 °F 86% 30.49 in 10.0 mi East 11.5 mph - N/A   Clear
9:15 AM 25.9 °F 17.4 °F 21.9 °F 85% 30.50 in 10.0 mi East 8.1 mph - N/A   Clear
9:35 AM 27.5 °F 19.3 °F 22.3 °F 81% 30.50 in 10.0 mi East 8.1 mph - N/A   Clear
9:55 AM 29.3 °F 21.5 °F 23.0 °F 77% 30.50 in 10.0 mi East 8.1 mph - N/A   Clear
10:15 AM 30.9 °F 23.5 °F 23.5 °F 74% 30.50 in 10.0 mi East 8.1 mph - N/A   Clear
10:35 AM 32.0 °F 26.4 °F 23.4 °F 70% 30.50 in 10.0 mi East 5.8 mph - N/A   Clear
10:55 AM 34.0 °F 29.8 °F 24.3 °F 68% 30.50 in 10.0 mi East 4.6 mph - N/A   Clear
11:15 AM 35.2 °F 32.4 °F 24.4 °F 65% 30.49 in 10.0 mi East 3.5 mph - N/A   Clear
11:35 AM 36.9 °F 34.3 °F 23.2 °F 58% 30.48 in 10.0 mi ENE 3.5 mph - N/A   Clear
11:55 AM 36.7 °F - 27.5 °F 69% 30.48 in 10.0 mi Calm Calm - N/A   Clear
12:15 PM 40.8 °F - 20.3 °F 44% 30.47 in 10.0 mi Calm Calm - N/A   Clear
12:35 PM 37.6 °F 34.0 °F 27.9 °F 68% 30.46 in 10.0 mi WNW 4.6 mph - N/A   Clear
12:55 PM 37.2 °F 33.6 °F 27.7 °F 68% 30.45 in 10.0 mi WNW 4.6 mph - N/A   Clear
1:15 PM 37.4 °F 33.8 °F 27.3 °F 67% 30.45 in 10.0 mi West 4.6 mph - N/A   Clear
1:35 PM 38.8 °F 34.6 °F 27.1 °F 63% 30.44 in 10.0 mi WNW 5.8 mph - N/A   Clear
1:55 PM 39.2 °F 35.9 °F 26.4 °F 60% 30.44 in 10.0 mi NW 4.6 mph - N/A   Clear
2:15 PM 40.1 °F 38.0 °F 26.2 °F 58% 30.43 in 10.0 mi West 3.5 mph - N/A   Clear
2:35 PM 40.1 °F 38.0 °F 25.7 °F 56% 30.43 in 10.0 mi NW 3.5 mph - N/A   Clear
2:55 PM 40.5 °F - 25.9 °F 56% 30.43 in 10.0 mi Calm Calm - N/A   Clear
3:15 PM 40.8 °F - 25.0 °F 53% 30.43 in 10.0 mi Calm Calm - N/A   Clear
3:35 PM 41.4 °F - 25.3 °F 53% 30.43 in 10.0 mi Calm Calm - N/A   Clear
3:55 PM 41.0 °F - 24.8 °F 53% 30.43 in 10.0 mi Calm Calm - N/A   Clear
4:15 PM 40.5 °F - 25.2 °F 54% 30.42 in 10.0 mi Calm Calm - N/A   Clear
4:35 PM 39.0 °F - 25.2 °F 58% 30.42 in 10.0 mi Calm Calm - N/A   Clear
4:55 PM 37.8 °F - 25.3 °F 61% 30.43 in 10.0 mi Calm Calm - N/A   Clear
5:15 PM 37.2 °F - 25.2 °F 62% 30.43 in 10.0 mi Calm Calm - N/A   Clear
5:35 PM 37.6 °F - 25.0 °F 60% 30.43 in 10.0 mi Calm Calm - N/A   Clear
5:55 PM 35.6 °F 30.7 °F 24.3 °F 63% 30.43 in 10.0 mi East 5.8 mph - N/A   Clear
6:15 PM 34.7 °F 28.1 °F 23.0 °F 62% 30.42 in 10.0 mi ESE 8.1 mph - N/A   Clear
6:35 PM 34.5 °F 29.4 °F 20.7 °F 57% 30.43 in 10.0 mi SE 5.8 mph - N/A   Clear
6:55 PM 34.7 °F 27.5 °F 20.1 °F 55% 30.43 in 10.0 mi ESE 9.2 mph - N/A   Clear
7:15 PM 33.3 °F 26.4 °F 21.0 °F 61% 30.43 in 10.0 mi East 8.1 mph - N/A   Clear
7:35 PM 33.3 °F 26.4 °F 20.1 °F 59% 30.43 in 10.0 mi ESE 8.1 mph - N/A   Clear
7:55 PM 33.8 °F 26.4 °F 17.6 °F 52% 30.43 in 10.0 mi ESE 9.2 mph - N/A   Clear
8:15 PM 33.8 °F 30.8 °F 17.1 °F 50% 30.43 in 10.0 mi West 3.5 mph - N/A   Clear
8:35 PM 32.2 °F - 21.4 °F 64% 30.43 in 10.0 mi Calm Calm - N/A   Clear
8:55 PM 31.8 °F 28.5 °F 22.1 °F 67% 30.44 in 10.0 mi SW 3.5 mph - N/A   Clear
9:15 PM 30.2 °F - 22.5 °F 73% 30.44 in 10.0 mi Calm Calm - N/A   Clear
9:35 PM 29.8 °F - 22.6 °F 75% 30.44 in 10.0 mi Calm Calm - N/A   Clear
9:55 PM 29.5 °F - 23.2 °F 77% 30.44 in 10.0 mi Calm Calm - N/A   Clear
10:15 PM 28.6 °F 21.5 °F 21.7 °F 76% 30.44 in 10.0 mi East 6.9 mph - N/A   Clear
10:35 PM 28.4 °F 19.7 °F 21.4 °F 75% 30.44 in 10.0 mi East 9.2 mph - N/A   Clear
10:55 PM 28.4 °F 19.1 °F 22.1 °F 77% 30.44 in 10.0 mi East 10.4 mph - N/A   Clear
11:15 PM 28.8 °F 20.9 °F 20.1 °F 70% 30.44 in 10.0 mi East 8.1 mph - N/A   Clear
11:35 PM 30.4 °F 22.2 °F 18.1 °F 60% 30.44 in 10.0 mi ESE 9.2 mph - N/A   Clear
11:55 PM 30.9 °F 22.8 °F 15.8 °F 54% 30.43 in 10.0 mi ESE 9.2 mph - N/A   Clear